Weather in Ahmad Yassaviy nomidagi a.p.

Uzbekistan     41°11′13″N   69°26′23″E
temp.,
°C
wind,
m/s
gust,
m/s
humid.,
%
clouds,
%
prec.,
mm/h
press.,
hPa
HPBL,
m
8 may, sat
sat823:00+19ene22585 0.0 101515
02:00+19ene225112 0.0 101413
05:00+19ene2249100 0.0 101412
08:00+23ne1144100 0.0 1015175
11:00+27nw22365 0.0 10141388
14:00+29n33280 0.0 10132401
17:00+28n54350 0.0 10121534
20:00+22ene335130 0.0 101227
9 may, sun
sun923:00+21ene334732 0.0 101223
02:00+21e224285 0.0 101016
05:00+20e2241100 0.0 101011
08:00+23sw3648100 0.0 1013463
11:00+24s444564 0.6 10131027
14:00+27wsw2239100 0.1 10121768
17:00+25nnw7648100 0.1 1012893
20:00+18n367330 0.4 1014119
10 may, mon
mon1023:00+17ese118174 0.5 101311
02:00+17ne22815 0.0 101118
05:00+17nne1177100 0.0 101013
08:00+21w116095 0.0 1011241
11:00+26wnw324175 0.0 10101136
14:00+27nnw6540100 0.0 10091396
17:00+23nw5652100 0.0 1009403
20:00+19nne1151100 0.1 101117
11 may, tue
tue1123:00+18sw1154100 0.1 101116
02:00+16sse2258100 0.0 101112
05:00+15se2262100 0.0 101316
08:00+17s455134 0.0 1014384
11:00+22nnw11440 0.0 10141051
14:00+25nnw552544 0.0 10142000
17:00+24n5530100 0.0 10141488
20:00+18nne344595 0.0 101541
12 may, wed
wed1223:00+15ne22510 0.0 101511
02:00+14e22490 0.0 101411
05:00+14e22450 0.0 101511
08:00+20s23390 0.0 1015313
11:00+24sw22300 0.0 10141332
14:00+26nw11260 0.0 10121878
17:00+27ne22250 0.0 10111920
20:00+19ne33510 0.0 101131